Terminal Aerodrome Forecast
Issued by NWS

Home | Current Version | Previous Version | Graphics & Text | Print | Product List | Glossary On
Versions: 1 2 3 4 5 6 7 8 9 10 11 12 13 14 15 16 17 18 19
000
FTUS43 KTOP 251400 AAA
TAFFOE
TAF AMD
KFOE 251428Z 2514/2612 13012KT P6SM SCT060
     FM251800 16016G26KT P6SM SCT050
     FM260200 18012KT P6SM VCTS SCT040CB BKN250=

USA.gov is the U.S. government's official web portal to all federal, state and local government web resources and services.